Pierre Regional Airport
KPIR : now visible

Airfield :











YOU CAN JOIN US ON...

 
LOGIN :

Register | Disclaimer

   EN    FR    IT 

 









Legend :    VFR   Marginal VFR   IFR   Intensive IFR   Very Intensive IFR
Visi :
Ceiling :
>= 8 km
>= 3000ft
5 to 8 km
1000 to 3000 ft
1500m to 5 km
500 to 1000 ft
800 to 1500m
200 to 500 ft
< 800m
< 200 ft
Symbols :   Thunderstorms  Fog  Heavy snow  Heavy precipitations  Wind > 20 kt






- Airport Elevation : 1744 ft
- IATA code : PIR


KPIR - Pierre Regional

CURRENT METAR :
  • 171753Z AUTO 12017KT 10SM CLR 20/11 A3003 RMK AO2 SLP165 T02000106 10206 20094 58013

EXPIRED METARs :
  • 171653Z AUTO 12011KT 10SM FEW012 18/11 A3004 RMK AO2 SLP172 T01780111
  • 171601Z AUTO 13009KT 10SM BKN010 OVC013 16/12 A3005 RMK AO2 CIG 007V013 T01560117

TAF KPIR
Valid from the 17 at 18:00 until the 18 at 18:00 UTC


171720Z 1718/1818 12011G15KT P6SM FEW012 SCT035
FM180900 13007KT P6SM BKN007
FM181400 14010G16KT P6SM BKN004
KZMP FIR / North America



MET'MAP, your aeronautical weather chart ! - Copyright ORBIFLY December 2007 - Disclaimer

ORBIFLY MET'MAP TEAM :

Programming & Development : Alexandra Zaïnal
Concept & original design : Baudouin d'Aumeries
Assistance for programming : Marc-Olivier Méhu
Technical & hardware support : Manuel Goepfert

Contact : metmap@orbifly.com




SOURCES & CREDITS :

   NOAA       Earth
Advisory